| time (UTC) | temp F | wind direction | speed MPH | gust MPH | rain 1hr in | rain 24hr in | rain mn in | humidity % | barometer mb |
| 20260506134610 | 72 | 170 | 9.0 | 15.0 | 0.00 | 0.00 | 0.00 | 53 | 1006.2 |
| 20260506133110 | 72 | 115 | 5.0 | 14.0 | 0.00 | 0.00 | 0.00 | 55 | 1006.4 |
| 20260506131610 | 73 | 146 | 6.0 | 14.0 | 0.00 | 0.00 | 0.00 | 55 | 1006.4 |
| 20260506130110 | 72 | 114 | 8.0 | 12.0 | 0.00 | 0.00 | 0.00 | 53 | 1006.7 |
| 20260506124610 | 72 | 132 | 6.0 | 15.0 | 0.00 | 0.00 | 0.00 | 55 | 1006.9 |
| 20260506121610 | 71 | 161 | 5.0 | 11.0 | 0.00 | 0.00 | 0.00 | 53 | 1007.2 |
| 20260506120110 | 72 | 179 | 6.0 | 11.0 | 0.00 | 0.00 | 0.00 | 51 | 1007.3 |
| 20260506114609 | 72 | 19 | 4.0 | 9.0 | 0.00 | 0.00 | 0.00 | 53 | 1007.3 |
| 20260506113111 | 72 | 140 | 3.0 | 10.0 | 0.00 | 0.00 | 0.00 | 52 | 1007.4 |
| 20260506111609 | 73 | 130 | 4.0 | 9.0 | 0.00 | 0.00 | 0.00 | 51 | 1007.4 |
| 20260506110109 | 71 | 322 | 3.0 | 12.0 | 0.00 | 0.00 | 0.00 | 53 | 1007.6 |
| 20260506104611 | 73 | 173 | 5.0 | 10.0 | 0.00 | 0.00 | 0.00 | 50 | 1007.8 |
| 20260506100111 | 72 | 141 | 5.0 | 9.0 | 0.00 | 0.00 | 0.00 | 52 | 1008.0 |
| 20260506094609 | 72 | 160 | 5.0 | 11.0 | 0.00 | 0.00 | 0.00 | 55 | 1008.2 |
| 20260506093110 | 71 | 195 | 4.0 | 7.0 | 0.00 | 0.00 | 0.00 | 53 | 1008.2 |
| 20260506091609 | 69 | 167 | 3.0 | 11.0 | 0.00 | 0.00 | 0.00 | 55 | 1008.3 |
| 20260506090110 | 70 | 153 | 5.0 | 11.0 | 0.00 | 0.00 | 0.00 | 56 | 1008.4 |
| 20260506083109 | 67 | 218 | 7.0 | 13.0 | 0.00 | 0.00 | 0.00 | 61 | 1008.4 |
| 20260506081609 | 68 | 157 | 4.0 | 8.0 | 0.00 | 0.00 | 0.00 | 63 | 1008.5 |
| 20260506080114 | 68 | 125 | 7.0 | 13.0 | 0.00 | 0.00 | 0.00 | 65 | 1008.5 |
| 20260506073113 | 66 | 196 | 5.0 | 8.0 | 0.00 | 0.00 | 0.00 | 69 | 1008.6 |
| 20260506070114 | 64 | 175 | 2.0 | 7.0 | 0.00 | 0.00 | 0.00 | 73 | 1008.7 |
| 20260506061613 | 59 | 208 | 4.0 | 6.0 | 0.00 | 0.00 | 0.00 | 81 | 1008.7 |
| 20260506060113 | 58 | 198 | 5.0 | 6.0 | 0.00 | 0.00 | 0.00 | 82 | 1008.5 |
| 20260506044612 | 52 | 173 | 0.0 | 0.0 | 0.00 | 0.00 | 0.00 | 89 | 1008.0 |
| 20260506043112 | 52 | 174 | 0.0 | 1.0 | 0.00 | 0.00 | 0.00 | 89 | 1008.0 |
| 20260506041612 | 51 | 314 | 1.0 | 2.0 | 0.00 | 0.00 | 0.00 | 89 | 1007.9 |
| 20260506040112 | 51 | 321 | 0.0 | 0.0 | 0.00 | 0.00 | 0.00 | 88 | 1007.7 |
| 20260506033111 | 51 | 321 | 0.0 | 0.0 | 0.00 | 0.00 | 0.00 | 86 | 1007.5 |
| 20260506031611 | 51 | 321 | 0.0 | 0.0 | 0.00 | 0.00 | 0.00 | 86 | 1007.5 |
| 20260506024611 | 52 | 321 | 0.0 | 0.0 | 0.00 | 0.00 | 0.00 | 84 | 1007.2 |
| 20260506021611 | 53 | 321 | 0.0 | 1.0 | 0.00 | 0.00 | 0.00 | 82 | 1007.3 |
| 20260506020111 | 53 | 321 | 0.0 | 0.0 | 0.00 | 0.00 | 0.00 | 82 | 1007.3 |
| 20260506014610 | 53 | 321 | 0.0 | 0.0 | 0.00 | 0.00 | 0.00 | 80 | 1007.1 |
| 20260506013111 | 54 | 321 | 0.0 | 0.0 | 0.00 | 0.00 | 0.00 | 79 | 1006.9 |
| 20260506011611 | 55 | 321 | 0.0 | 1.0 | 0.00 | 0.00 | 0.00 | 78 | 1006.7 |
| 20260506010110 | 56 | 323 | 0.0 | 2.0 | 0.00 | 0.00 | 0.00 | 77 | 1006.5 |
| 20260506003110 | 57 | 331 | 0.0 | 0.0 | 0.00 | 0.00 | 0.00 | 75 | 1006.4 |
| 20260506001610 | 57 | 331 | 0.0 | 1.0 | 0.00 | 0.00 | 0.00 | 74 | 1006.1 |
| 20260506000110 | 58 | 331 | 1.0 | 3.0 | 0.00 | 0.00 | 0.00 | 73 | 1006.3 |
| 20260505234610 | 58 | 103 | 0.0 | 0.0 | 0.00 | 0.00 | 0.00 | 72 | 1006.3 |
| 20260505231610 | 59 | 103 | 0.0 | 3.0 | 0.00 | 0.00 | 0.00 | 70 | 1005.9 |
| 20260505230109 | 59 | 103 | 0.0 | 0.0 | 0.00 | 0.00 | 0.00 | 69 | 1005.9 |
| 20260505224611 | 59 | 123 | 1.0 | 4.0 | 0.00 | 0.00 | 0.00 | 70 | 1005.9 |
| 20260505223109 | 60 | 92 | 1.0 | 4.0 | 0.00 | 0.00 | 0.00 | 69 | 1005.8 |
| 20260505221609 | 60 | 197 | 1.0 | 4.0 | 0.00 | 0.00 | 0.00 | 69 | 1005.9 |
| 20260505214609 | 60 | 96 | 1.0 | 8.0 | 0.00 | 0.00 | 0.00 | 68 | 1005.5 |
| 20260505213109 | 59 | 148 | 1.0 | 5.0 | 0.00 | 0.00 | 0.00 | 68 | 1005.7 |
| 20260505211609 | 59 | 175 | 1.0 | 5.0 | 0.00 | 0.00 | 0.00 | 68 | 1005.8 |
| 20260505210109 | 59 | 61 | 0.0 | 5.0 | 0.00 | 0.00 | 0.00 | 67 | 1005.7 |
| 20260505204609 | 60 | 188 | 0.0 | 3.0 | 0.00 | 0.00 | 0.00 | 65 | 1005.8 |
| 20260505203110 | 60 | 138 | 0.0 | 2.0 | 0.00 | 0.00 | 0.00 | 64 | 1005.8 |
| 20260505201609 | 61 | 99 | 1.0 | 7.0 | 0.00 | 0.00 | 0.00 | 62 | 1005.8 |
| 20260505200108 | 61 | 237 | 0.0 | 4.0 | 0.00 | 0.00 | 0.00 | 62 | 1005.8 |
| 20260505194608 | 62 | 108 | 1.0 | 3.0 | 0.00 | 0.00 | 0.00 | 61 | 1005.8 |
| 20260505193108 | 62 | 43 | 1.0 | 8.0 | 0.00 | 0.00 | 0.00 | 60 | 1005.7 |
| 20260505191608 | 63 | 110 | 0.0 | 4.0 | 0.00 | 0.00 | 0.00 | 60 | 1005.7 |
| 20260505184609 | 65 | 88 | 3.0 | 5.0 | 0.00 | 0.00 | 0.00 | 58 | 1005.7 |
| 20260505181608 | 66 | 311 | 3.0 | 8.0 | 0.00 | 0.00 | 0.00 | 55 | 1005.7 |
| 20260505180108 | 67 | 188 | 7.0 | 11.0 | 0.00 | 0.00 | 0.00 | 54 | 1005.5 |
| 20260505174608 | 68 | 169 | 4.0 | 13.0 | 0.00 | 0.00 | 0.00 | 52 | 1005.5 |
| 20260505173108 | 70 | 139 | 7.0 | 13.0 | 0.00 | 0.00 | 0.00 | 51 | 1005.3 |
| 20260505171608 | 71 | 150 | 5.0 | 12.0 | 0.00 | 0.00 | 0.00 | 48 | 1005.4 |
| 20260505170112 | 72 | 123 | 5.0 | 12.0 | 0.00 | 0.00 | 0.00 | 47 | 1005.3 |
| 20260505164612 | 74 | 176 | 5.0 | 13.0 | 0.00 | 0.00 | 0.00 | 45 | 1005.1 |
| 20260505163112 | 75 | 131 | 4.0 | 12.0 | 0.00 | 0.00 | 0.00 | 44 | 1005.1 |
| 20260505161612 | 76 | 131 | 5.0 | 16.0 | 0.00 | 0.00 | 0.00 | 42 | 1005.0 |
| 20260505160112 | 77 | 142 | 4.0 | 13.0 | 0.00 | 0.00 | 0.00 | 40 | 1005.1 |
| 20260505153112 | 78 | 281 | 2.0 | 12.0 | 0.00 | 0.00 | 0.00 | 35 | 1005.4 |
| 20260505150111 | 78 | 188 | 5.0 | 14.0 | 0.00 | 0.00 | 0.00 | 34 | 1005.6 |
| 20260505140111 | 78 | 149 | 3.0 | 9.0 | 0.00 | 0.00 | 0.00 | 37 | 1006.4 |